Regional Weather Roundup
Issued by NWS Newport/Morehead, NC

Current Version | Previous Version | Text Only | Print | Product List | Glossary On
Versions: 1 2 3 4 5 6 7 8 9 10 11 12 13 14 15 16 17 18 19 20 21 22 23 24 25 26 27 28 29 30 31 32 33 34 35 36 37 38 39 40 41 42 43 44 45 46 47 48 49 50
000 ASUS42 KMHX 260610 RWRMHX WEATHER ROUNDUP FOR EASTERN NORTH CAROLINA NATIONAL WEATHER SERVICE NEWPORT/MOREHEAD CITY NC 100 AM EST FRI DEC 26 2014 NOTE: "FAIR" INDICATES FEW OR NO CLOUDS BELOW 12,000 FEET WITH NO SIGNIFICANT WEATHER AND/OR OBSTRUCTIONS TO VISIBILITY NCZ015>017-031-032-045>047-102-103-260700- NORTH COAST CITY SKY/WX TMP DP RH WIND PRES REMARKS EDENTON N/A 39 36 89 NW5 30.25S ELIZABETH CITY CLEAR 44 34 67 W7 30.25R KITTY HAWK CLEAR 47 42 81 W3 30.23R MANTEO CLEAR 39 37 93 CALM 30.25R $$ NCZ045>047-081-094-103-104-260700- CENTRAL COAST CITY SKY/WX TMP DP RH WIND PRES REMARKS FRISCO CLEAR 48 41 76 VRB3 30.24S SWANQUARTER N/A 41 N/A N/A CALM 30.21S $$ NCZ095-097-098-100-101-260700- SOUTHERN COAST CITY SKY/WX TMP DP RH WIND PRES REMARKS BEAUFORT CLEAR 39 38 96 CALM 30.25S CEDAR ISLAND N/A 48 N/A N/A NW3 30.30S JACKSONVILLE CLEAR 40 39 97 CALM 30.25S FOG PINEY ISLAND CLEAR 50 41 71 CALM 30.24F WILMINGTON CLEAR 40 38 93 CALM 30.25S $$ NCZ011>013-027>030-043-044-078>080-089-090>093-098-260700- COASTAL PLAIN CITY SKY/WX TMP DP RH WIND PRES REMARKS AHOSKIE CLEAR 33 32 97 CALM 30.26F CLINTON CLEAR 37 37 100 CALM 30.26S ELIZABETHTOWN CLEAR 38 37 92 CALM 30.25F GOLDSBORO CLEAR 37 37 100 CALM 30.23F FOG GREENVILLE FOG 36 36 100 CALM 30.26S VSB 1/2 HAVELOCK CLEAR 38 36 92 CALM 30.26S KENANSVILLE CLEAR 34 34 100 CALM 30.27S KINSTON CLEAR 35 34 97 CALM 30.26S NEW BERN FOG 38 34 85 CALM 30.26F VSB 1/2 RICHLANDS CLEAR 36 32 87 CALM 30.26S ROCKY MOUNT CLEAR 34 33 96 CALM 30.25F FOG WASHINGTON CLEAR 37 35 94 CALM 30.26S WHITEVILLE CLEAR 39 38 97 CALM 30.25S $$ AMZ130-135-150-152-154-156-158-170-250-252-270-ANZ085-086-088-633-658-670-260700- MARINE OBSERVATIONS STATION/POSITION TIME TEMP WIND PRES WAVE SWELL AIR SEA DIR/SP/G HT/PER HT/PER (UTC) (F) (DEG/KT/KT) (MB) (FT/S) (FT/S) CHESAPEAKE LIGHT 0500 48 260/ 9/ 10 1024.0 64 E VA BEACH 0600 52 52 250/ 6/ 6 1023.2 3/ 9 3/ 9 DUCK 0600 50 50 290/ 7/ 10 1023.2 2 E DUCK 0600 50 N/A 2/10 10 NE DUCK 0600 50 N/A 2/ 8 OREGON INLET 0600 48 54 300/ 5/ 7 1023.9 13E OREGON INLT 0600 51 N/A 3/ 9 HATTERAS CG 0600 51 58 330/ 8/ 9 1024.4 DIAMOND BUOY 0600 55 1024.0 5/ 8 17 S OCRACOKE NOT AVBL CAPE LOOKOUT 0500 52 10/ 7/ 9 1024.3 BEAUFORT LAB 0600 47 55 20/ 3/ 3 1023.2 30 SE NEW RIVER 0600 56 60 30/ 12/ 16 1024.3 3/ 9 3/ 9 5 SE WRIGHTSVLE NOT AVBL 225 S CAPE HAT 0517 68 74 360/ 10/ 14 1022.8 7/ 8 7/ 8 41 SE CHARLESTON 0600 59 71 20/ 10/ 12 1023.8 3/ 7 2/ 7 $$

USA.gov is the U.S. government's official web portal to all federal, state and local government web resources and services.